EW7168 Weather Reports


time (UTC)temp
C
wind
direction
speed
KPH
gust
KPH
rain 1hr
cm
rain 24hr
cm
rain mn
cm
humidity
%
barometer
mb
20240416040109 9 256 3.2 16.1 0.00 0.00 0.00 39 1002.3
20240416034630 9 306 4.8 14.5 0.00 0.00 0.00 39 1002.4
20240416033054 9 301 6.4 19.3 0.00 0.00 0.00 39 1002.5
20240416031601 9 273 3.2 14.5 0.00 0.00 0.00 38 1002.6
20240416030051 10 296 6.4 20.9 0.00 0.00 0.00 39 1002.4
20240416024600 10 313 6.4 19.3 0.00 0.00 0.00 39 1002.1
20240416023105 10 68 9.7 25.7 0.00 0.00 0.00 38 1001.7
20240416021550 10 317 8.0 29.0 0.00 0.00 0.00 37 1001.9
20240416020055 10 22 9.7 25.7 0.00 0.00 0.00 37 1001.8
20240416014553 11 51 14.5 33.8 0.00 0.00 0.00 37 1001.9
20240416013053 11 257 14.5 33.8 0.00 0.00 0.00 38 1001.8
20240416011553 11 288 16.1 48.3 0.00 0.00 0.00 36 1001.3
20240416010119 12 222 11.3 30.6 0.00 0.00 0.00 31 1000.7
20240416004553 13 284 11.3 35.4 0.00 0.00 0.00 29 1000.5
20240416003104 13 316 8.0 29.0 0.00 0.00 0.00 28 1000.5
20240416001552 14 300 9.7 27.4 0.00 0.00 0.00 26 1000.1
20240416000055 15 264 9.7 20.9 0.00 0.00 0.00 24 999.5
20240415234552 16 352 12.9 38.6 0.00 0.00 0.00 20 998.9
20240415233055 18 208 8.0 17.7 0.00 0.00 0.00 9 998.1
20240415231555 18 192 6.4 19.3 0.00 0.00 0.00 9 998.0
20240415230054 18 192 11.3 20.9 0.00 0.00 0.00 9 998.0
20240415224553 19 252 11.3 35.4 0.00 0.00 0.00 9 997.8
20240415223055 20 184 11.3 35.4 0.00 0.00 0.00 9 997.6
20240415221605 20 225 17.7 45.1 0.00 0.00 0.00 8 997.4
20240415220054 20 209 11.3 22.5 0.00 0.00 0.00 9 997.3
20240415214551 21 207 11.3 30.6 0.00 0.00 0.00 8 997.3
20240415213052 20 229 16.1 33.8 0.00 0.00 0.00 8 997.3
20240415211551 20 193 14.5 32.2 0.00 0.00 0.00 9 997.3
20240415210057 20 185 19.3 38.6 0.00 0.00 0.00 9 997.3
20240415204552 21 185 11.3 25.7 0.00 0.00 0.00 10 997.5
20240415203052 20 190 12.9 35.4 0.00 0.00 0.00 10 997.5
20240415201556 21 169 17.7 35.4 0.00 0.00 0.00 8 997.7
20240415200056 22 150 16.1 33.8 0.00 0.00 0.00 8 997.5
20240415194549 22 193 17.7 38.6 0.00 0.00 0.00 7 998.1
20240415193051 22 176 14.5 35.4 0.00 0.00 0.00 7 998.1
20240415191551 22 205 16.1 32.2 0.00 0.00 0.00 6 998.2
20240415190049 22 163 12.9 24.1 0.00 0.00 0.00 7 998.6
20240415184608 22 145 9.7 27.4 0.00 0.00 0.00 8 998.9
20240415183053 21 193 16.1 27.4 0.00 0.00 0.00 8 999.3
20240415181552 22 173 9.7 19.3 0.00 0.00 0.00 11 999.5
20240415180108 22 317 3.2 9.7 0.00 0.00 0.00 10 1000.1
20240415174550 21 282 3.2 12.9 0.00 0.00 0.00 10 1000.7
20240415173059 21 262 6.4 14.5 0.00 0.00 0.00 11 1001.1
20240415171554 21 99 3.2 11.3 0.00 0.00 0.00 12 1001.4
20240415170103 20 184 6.4 20.9 0.00 0.00 0.00 12 1001.7
20240415164554 20 194 4.8 14.5 0.00 0.00 0.00 12 1001.9
20240415163051 20 197 6.4 17.7 0.00 0.00 0.00 14 1002.1
20240415161554 20 190 8.0 19.3 0.00 0.00 0.00 15 1002.4
20240415160052 19 144 6.4 17.7 0.00 0.00 0.00 15 1002.6
20240415154554 18 201 6.4 12.9 0.00 0.00 0.00 17 1003.0
20240415153053 18 165 6.4 16.1 0.00 0.00 0.00 17 1003.4
20240415151555 17 191 8.0 17.7 0.00 0.00 0.00 19 1003.6
20240415150052 16 261 6.4 17.7 0.00 0.00 0.00 23 1003.8
20240415144550 15 199 0.0 6.4 0.00 0.00 0.00 23 1004.0
20240415143105 13 242 0.0 3.2 0.00 0.00 0.00 25 1004.3
20240415141554 13 0 1.6 4.8 0.00 0.00 0.00 26 1004.4
20240415140053 13 0 0.0 0.0 0.00 0.00 0.00 26 1004.4
20240415134552 11 0 0.0 0.0 0.00 0.00 0.00 29 1004.6
20240415133051 10 0 0.0 0.0 0.00 0.00 0.00 32 1004.5
20240415131550 9 254 1.6 3.2 0.00 0.00 0.00 34 1004.5
20240415130052 8 0 0.0 6.4 0.00 0.00 0.00 33 1004.5
20240415124554 8 89 1.6 9.7 0.00 0.00 0.00 35 1004.4
20240415123056 7 0 1.6 4.8 0.00 0.00 0.00 34 1004.0
20240415121604 8 0 1.6 9.7 0.00 0.00 0.00 34 1004.1
20240415120055 7 255 1.6 4.8 0.00 0.00 0.00 35 1004.4
20240415114603 7 265 0.0 3.2 0.00 0.00 0.00 34 1004.5
20240415113101 8 252 1.6 4.8 0.00 0.00 0.00 33 1004.7
20240415111606 8 255 1.6 4.8 0.00 0.00 0.00 32 1004.7
20240415110052 8 263 1.6 4.8 0.00 0.00 0.00 34 1004.8
20240415104553 8 0 0.0 4.8 0.00 0.00 0.00 35 1004.8
20240415103052 9 263 0.0 4.8 0.00 0.00 0.00 32 1004.7
20240415101601 10 265 0.0 4.8 0.00 0.00 0.00 29 1004.8
20240415100051 10 220 0.0 6.4 0.00 0.00 0.00 30 1004.9
20240415094605 10 220 1.6 9.7 0.00 0.00 0.00 32 1005.1
20240415093050 10 223 3.2 11.3 0.00 0.00 0.00 35 1005.0
20240415091558 10 279 3.2 4.8 0.00 0.00 0.00 37 1005.0
20240415090053 10 0 1.6 4.8 0.00 0.00 0.00 34 1005.5
20240415084555 10 207 1.6 6.4 0.00 0.00 0.00 37 1005.6
20240415083055 10 0 0.0 0.0 0.00 0.00 0.00 38 1006.0
20240415081554 11 0 0.0 0.0 0.00 0.00 0.00 34 1005.9
20240415080052 12 0 1.6 3.2 0.00 0.00 0.00 32 1006.2
20240415074552 14 0 0.0 6.4 0.00 0.00 0.00 28 1006.4
20240415073053 13 184 3.2 4.8 0.00 0.00 0.00 28 1006.5
20240415071550 12 0 0.0 4.8 0.00 0.00 0.00 33 1006.8
20240415070053 13 237 1.6 4.8 0.00 0.00 0.00 31 1007.0
20240415064557 13 202 1.6 4.8 0.00 0.00 0.00 28 1007.0
20240415063051 13 227 0.0 4.8 0.00 0.00 0.00 30 1007.2
20240415061600 15 202 1.6 3.2 0.00 0.00 0.00 26 1007.4
20240415060051 16 193 1.6 4.8 0.00 0.00 0.00 24 1007.5
20240415054552 16 186 1.6 6.4 0.00 0.00 0.00 22 1007.5
20240415053054 17 178 3.2 8.0 0.00 0.00 0.00 22 1007.6
20240415051551 18 184 4.8 14.5 0.00 0.00 0.00 20 1007.7
20240415050055 18 130 4.8 16.1 0.00 0.00 0.00 20 1007.9
20240415044553 18 143 4.8 9.7 0.00 0.00 0.00 20 1008.2
20240415043052 18 196 4.8 9.7 0.00 0.00 0.00 19 1008.5
20240415041603 18 190 4.8 11.3 0.00 0.00 0.00 17 1008.8